,,,PA_Meas_PMT16A,,PR_Meas_QMR101_102,,RH_Meas_QMH101,,SR_Meas_QMS101,,TA_Meas_QMH101,,GenWind,,GenWind,
date,time,status,PA,status,PR,status,RH,status,SR,status,TA,status,DirAvg,status,SpdAvg,
2012-05-04, 00:00:04,VALID,999.114,VALID,0,VALID,94.5081,VALID,0,VALID,23.8183,VALID,21,VALID,0.512109,
2012-05-04, 00:01:04,VALID,999.116,VALID,0,VALID,94.531,VALID,0,VALID,23.7775,VALID,21,VALID,0.582031,
2012-05-04, 00:02:04,VALID,999.128,VALID,0,VALID,94.5691,VALID,0,VALID,23.7988,VALID,21,VALID,0.474609,
2012-05-04, 00:03:04,VALID,999.109,VALID,0,VALID,94.6149,VALID,0,VALID,23.7793,VALID,21,VALID,0.369141,
2012-05-04, 00:04:04,VALID,999.09,VALID,0,VALID,94.6149,VALID,0,VALID,23.7793,VALID,21,VALID,0.449219,
2012-05-04, 00:05:04,VALID,999.093,VALID,0,VALID,94.5997,VALID,0,VALID,23.7793,VALID,21,VALID,0.326953,
2012-05-04, 00:06:04,VALID,999.098,VALID,0,VALID,94.5462,VALID,0,VALID,23.7597,VALID,23,VALID,0.712109,
2012-05-04, 00:07:04,VALID,999.062,VALID,0,VALID,94.5539,VALID,0,VALID,23.7189,VALID,62,VALID,0.905469,
2012-05-04, 00:08:04,VALID,999.059,VALID,0,VALID,94.5844,VALID,0,VALID,23.7402,VALID,62,VALID,0.893359,
2012-05-04, 00:09:04,VALID,999.03,VALID,0,VALID,94.6454,VALID,0,VALID,23.7384,VALID,62,VALID,0.877734,
2012-05-04, 00:10:04,VALID,998.989,VALID,0,VALID,94.6836,VALID,0,VALID,23.7793,VALID,62,VALID,0.849219,
2012-05-04, 00:11:04,VALID,998.989,VALID,0,VALID,94.6912,VALID,0,VALID,23.7579,VALID,62,VALID,0.752734,
2012-05-04, 00:12:04,VALID,998.974,VALID,0,VALID,94.676,VALID,0.104696,VALID,23.7597,VALID,62,VALID,0.570313,
2012-05-04, 00:13:04,VALID,998.995,VALID,0,VALID,94.6607,VALID,0,VALID,23.7579,VALID,62,VALID,0.732813,
2012-05-04, 00:14:04,VALID,998.969,VALID,0,VALID,94.6378,VALID,0,VALID,23.7402,VALID,52,VALID,0.853125,
2012-05-04, 00:15:04,VALID,998.978,VALID,0,VALID,94.5844,VALID,0,VALID,23.7207,VALID,38,VALID,0.861719,
2012-05-04, 00:16:04,VALID,998.944,VALID,0,VALID,94.5462,VALID,0,VALID,23.6817,VALID,36,VALID,0.866406,
2012-05-04, 00:17:04,VALID,998.923,VALID,0,VALID,94.5462,VALID,0,VALID,23.6817,VALID,34,VALID,1.02852,
2012-05-04, 00:18:04,VALID,998.933,VALID,0,VALID,94.5386,VALID,0,VALID,23.6622,VALID,34,VALID,0.989453,
2012-05-04, 00:19:04,VALID,998.933,VALID,0,VALID,94.6454,VALID,0,VALID,23.6817,VALID,34,VALID,0.887891,
2012-05-04, 00:20:04,VALID,998.909,VALID,0,VALID,94.6607,VALID,0,VALID,23.6817,VALID,34,VALID,0.810547,
2012-05-04, 00:21:04,VALID,998.88,VALID,0,VALID,94.6988,VALID,0,VALID,23.6622,VALID,34,VALID,0.669141,
2012-05-04, 00:22:04,VALID,998.836,VALID,0,VALID,94.6836,VALID,0,VALID,23.6427,VALID,34,VALID,0.435547,
2012-05-04, 00:23:04,VALID,998.834,VALID,0,VALID,94.6912,VALID,0,VALID,23.6427,VALID,34,VALID,0.309375,
2012-05-04, 00:24:04,VALID,998.785,VALID,0,VALID,94.6988,VALID,0,VALID,23.6214,VALID,34,VALID,0.421875,
2012-05-04, 00:25:04,VALID,998.784,VALID,0,VALID,94.7141,VALID,0,VALID,23.6427,VALID,34,VALID,0.511328,
2012-05-04, 00:26:04,VALID,998.763,VALID,0,VALID,94.7065,VALID,0,VALID,23.6232,VALID,34,VALID,0.551172,
2012-05-04, 00:27:04,VALID,998.817,VALID,0,VALID,94.7294,VALID,0,VALID,23.6427,VALID,48,VALID,0.665625,
2012-05-04, 00:28:04,VALID,998.785,VALID,0,VALID,94.7523,VALID,0,VALID,23.6427,VALID,51,VALID,0.701172,
2012-05-04, 00:29:04,VALID,998.794,VALID,0,VALID,94.7828,VALID,0,VALID,23.6427,VALID,64,VALID,0.738672,
2012-05-04, 00:30:04,VALID,998.779,VALID,0,VALID,94.8057,VALID,0,VALID,23.6622,VALID,64,VALID,0.663672,
2012-05-04, 00:31:04,VALID,998.782,VALID,0,VALID,94.798,VALID,0,VALID,23.6622,VALID,64,VALID,0.586328,
2012-05-04, 00:32:04,VALID,998.745,VALID,0,VALID,94.8209,VALID,0,VALID,23.6427,VALID,64,VALID,0.567187,
2012-05-04, 00:33:04,VALID,998.719,VALID,0,VALID,94.7751,VALID,0,VALID,23.6409,VALID,64,VALID,0.470703,
2012-05-04, 00:34:04,VALID,998.712,VALID,0,VALID,94.7675,VALID,0,VALID,23.6214,VALID,64,VALID,0.471484,
2012-05-04, 00:35:04,VALID,998.695,VALID,0,VALID,94.737,VALID,0.104696,VALID,23.6019,VALID,64,VALID,0.305469,
2012-05-04, 00:36:04,VALID,998.682,VALID,0,VALID,94.7217,VALID,0,VALID,23.6232,VALID,64,VALID,0.260938,
2012-05-04, 00:37:04,VALID,998.644,VALID,0,VALID,94.6988,VALID,0,VALID,23.6019,VALID,64,VALID,0.2,
2012-05-04, 00:38:04,VALID,998.639,VALID,0,VALID,94.7065,VALID,0,VALID,23.6019,VALID,64,VALID,0.207813,
2012-05-04, 00:39:04,VALID,998.628,VALID,0,VALID,94.6912,VALID,0,VALID,23.5823,VALID,64,VALID,0.339453,
2012-05-04, 00:40:04,VALID,998.632,VALID,0,VALID,94.6683,VALID,0,VALID,23.5823,VALID,134,VALID,0.796875,
2012-05-04, 00:41:04,VALID,998.643,VALID,0,VALID,94.676,VALID,0,VALID,23.5823,VALID,134,VALID,0.839844,
2012-05-04, 00:42:04,VALID,998.64,VALID,0,VALID,94.7217,VALID,0,VALID,23.6036,VALID,134,VALID,0.825,
2012-05-04, 00:43:04,VALID,998.625,VALID,0,VALID,94.7294,VALID,0,VALID,23.6427,VALID,134,VALID,0.516797,
2012-05-04, 00:44:04,VALID,998.605,VALID,0,VALID,94.7523,VALID,0,VALID,23.6622,VALID,134,VALID,0.410937,
2012-05-04, 00:45:04,VALID,998.58,VALID,0,VALID,94.7217,VALID,0,VALID,23.6817,VALID,134,VALID,0.172656,
2012-05-04, 00:46:04,VALID,998.554,VALID,0,VALID,94.7217,VALID,0,VALID,23.6817,VALID,134,VALID,0.0175781,
2012-05-04, 00:47:04,VALID,998.492,VALID,0,VALID,94.7065,VALID,0,VALID,23.6604,VALID,134,VALID,0,
2012-05-04, 00:48:04,VALID,998.478,VALID,0,VALID,94.6683,VALID,0,VALID,23.6622,VALID,134,VALID,0.222656,
2012-05-04, 00:49:04,VALID,998.457,VALID,0,VALID,94.5997,VALID,0,VALID,23.6409,VALID,134,VALID,0.303125,
2012-05-04, 00:50:04,VALID,998.456,VALID,0,VALID,94.5691,VALID,0,VALID,23.6427,VALID,134,VALID,0.446094,
2012-05-04, 00:51:04,VALID,998.451,VALID,0,VALID,94.5462,VALID,0,VALID,23.6427,VALID,134,VALID,0.467187,
2012-05-04, 00:52:04,VALID,998.447,VALID,0,VALID,94.531,VALID,0,VALID,23.6214,VALID,134,VALID,0.419531,
2012-05-04, 00:53:04,VALID,998.43,VALID,0,VALID,94.531,VALID,0,VALID,23.6427,VALID,118,VALID,0.768359,
2012-05-04, 00:54:04,VALID,998.473,VALID,0,VALID,94.5615,VALID,0,VALID,23.6214,VALID,113,VALID,0.746094,
2012-05-04, 00:55:04,VALID,998.453,VALID,0,VALID,94.592,VALID,0,VALID,23.6427,VALID,113,VALID,0.758203,
2012-05-04, 00:56:04,VALID,998.443,VALID,0,VALID,94.6149,VALID,0,VALID,23.6214,VALID,113,VALID,0.630469,
2012-05-04, 00:57:04,VALID,998.475,VALID,0,VALID,94.592,VALID,0,VALID,23.6427,VALID,113,VALID,0.461719,
2012-05-04, 00:58:04,VALID,998.476,VALID,0,VALID,94.592,VALID,0,VALID,23.6019,VALID,113,VALID,0.242188,
2012-05-04, 00:59:04,VALID,998.47,VALID,0,VALID,94.592,VALID,0,VALID,23.6214,VALID,113,VALID,0.114063,
2012-05-04, 01:00:04,VALID,998.496,VALID,0,VALID,94.5615,VALID,0,VALID,23.6019,VALID,113,VALID,0,
2012-05-04, 01:01:04,VALID,998.508,VALID,0,VALID,94.5691,VALID,0,VALID,23.6232,VALID,113,VALID,0,
2012-05-04, 01:02:04,VALID,998.512,VALID,0,VALID,94.5462,VALID,0,VALID,23.6232,VALID,113,VALID,0,
2012-05-04, 01:03:04,VALID,998.49,VALID,0,VALID,94.5539,VALID,0,VALID,23.6019,VALID,113,VALID,0,
2012-05-04, 01:04:04,VALID,998.515,VALID,0,VALID,94.531,VALID,0,VALID,23.5823,VALID,113,VALID,0,
2012-05-04, 01:05:04,VALID,998.53,VALID,0,VALID,94.5462,VALID,0,VALID,23.5433,VALID,113,VALID,0,
2012-05-04, 01:06:04,VALID,998.544,VALID,0,VALID,94.5234,VALID,0,VALID,23.5433,VALID,113,VALID,0,
2012-05-04, 01:07:04,VALID,998.572,VALID,0,VALID,94.5005,VALID,0,VALID,23.5646,VALID,113,VALID,0,
2012-05-04, 01:08:04,VALID,998.565,VALID,0,VALID,94.5234,VALID,0,VALID,23.5238,VALID,113,VALID,0,
2012-05-04, 01:09:04,VALID,998.574,VALID,0,VALID,94.5539,VALID,0,VALID,23.5646,VALID,113,VALID,0,
2012-05-04, 01:10:04,VALID,998.579,VALID,0,VALID,94.5844,VALID,0,VALID,23.5238,VALID,113,VALID,0,
2012-05-04, 01:11:04,VALID,998.578,VALID,0,VALID,94.6073,VALID,0,VALID,23.5238,VALID,113,VALID,0,
2012-05-04, 01:12:04,VALID,998.584,VALID,0,VALID,94.6226,VALID,0,VALID,23.5256,VALID,113,VALID,0,
2012-05-04, 01:13:04,VALID,998.579,VALID,0,VALID,94.6302,VALID,0,VALID,23.5451,VALID,113,VALID,0,
2012-05-04, 01:14:04,VALID,998.598,VALID,0,VALID,94.6302,VALID,0,VALID,23.5256,VALID,125,VALID,0.174219,
2012-05-04, 01:15:04,VALID,998.594,VALID,0,VALID,94.6226,VALID,0,VALID,23.5043,VALID,131,VALID,0.600391,
2012-05-04, 01:16:04,VALID,998.585,VALID,0,VALID,94.6226,VALID,0,VALID,23.5043,VALID,131,VALID,0.300391,
2012-05-04, 01:17:04,VALID,998.632,VALID,0,VALID,94.5768,VALID,0,VALID,23.5256,VALID,133,VALID,0.471484,
2012-05-04, 01:18:04,VALID,998.576,VALID,0,VALID,94.531,VALID,0,VALID,23.4848,VALID,133,VALID,0.430859,
2012-05-04, 01:19:04,VALID,998.587,VALID,0,VALID,94.5081,VALID,0,VALID,23.5256,VALID,133,VALID,0.558984,
2012-05-04, 01:20:04,VALID,998.573,VALID,0,VALID,94.4852,VALID,0,VALID,23.5256,VALID,133,VALID,0.589063,
2012-05-04, 01:21:04,VALID,998.579,VALID,0,VALID,94.4394,VALID,0,VALID,23.5256,VALID,133,VALID,0.612891,
2012-05-04, 01:22:04,VALID,998.558,VALID,0,VALID,94.4013,VALID,0,VALID,23.5451,VALID,133,VALID,0.547656,
2012-05-04, 01:23:04,VALID,998.533,VALID,0,VALID,94.3708,VALID,0,VALID,23.5451,VALID,133,VALID,0.576953,
2012-05-04, 01:24:04,VALID,998.542,VALID,0,VALID,94.3021,VALID,0,VALID,23.5646,VALID,133,VALID,0.586328,
2012-05-04, 01:25:04,VALID,998.521,VALID,0,VALID,94.264,VALID,0,VALID,23.5433,VALID,133,VALID,0.602344,
2012-05-04, 01:26:04,VALID,998.539,VALID,0,VALID,94.2105,VALID,0,VALID,23.5646,VALID,133,VALID,0.723047,
2012-05-04, 01:27:04,VALID,998.538,VALID,0,VALID,94.119,VALID,0,VALID,23.5646,VALID,132,VALID,0.879297,
2012-05-04, 01:28:04,VALID,998.571,VALID,0,VALID,94.0045,VALID,0,VALID,23.5451,VALID,131,VALID,0.783203,
2012-05-04, 01:29:04,VALID,998.578,VALID,0,VALID,93.9588,VALID,0,VALID,23.5451,VALID,129,VALID,0.598437,
2012-05-04, 01:30:04,VALID,998.602,VALID,0,VALID,93.9435,VALID,0,VALID,23.5256,VALID,129,VALID,0.410156,
2012-05-04, 01:31:04,VALID,998.604,VALID,0,VALID,93.9511,VALID,0,VALID,23.5256,VALID,129,VALID,0.351172,
2012-05-04, 01:32:04,VALID,998.62,VALID,0,VALID,93.9511,VALID,0,VALID,23.5043,VALID,129,VALID,0.279687,
2012-05-04, 01:33:04,VALID,998.639,VALID,0,VALID,93.9817,VALID,0,VALID,23.5061,VALID,129,VALID,0.108594,
2012-05-04, 01:34:04,VALID,998.592,VALID,0,VALID,94.0274,VALID,0,VALID,23.5061,VALID,129,VALID,0,
2012-05-04, 01:35:04,VALID,998.607,VALID,0,VALID,94.0732,VALID,0,VALID,23.5061,VALID,129,VALID,0,
2012-05-04, 01:36:04,VALID,998.604,VALID,0,VALID,94.1114,VALID,0,VALID,23.5061,VALID,129,VALID,0,
2012-05-04, 01:37:04,VALID,998.602,VALID,0,VALID,94.1724,VALID,0,VALID,23.4848,VALID,129,VALID,0,
2012-05-04, 01:38:04,VALID,998.589,VALID,0,VALID,94.2182,VALID,0,VALID,23.5061,VALID,129,VALID,0,
2012-05-04, 01:39:04,VALID,998.606,VALID,0,VALID,94.2105,VALID,0,VALID,23.4866,VALID,129,VALID,0,
2012-05-04, 01:40:04,VALID,998.597,VALID,0,VALID,94.2716,VALID,0,VALID,23.4866,VALID,129,VALID,0,
2012-05-04, 01:41:04,VALID,998.61,VALID,0,VALID,94.325,VALID,0,VALID,23.4866,VALID,129,VALID,0.489453,
2012-05-04, 01:42:04,VALID,998.61,VALID,0,VALID,94.3555,VALID,0,VALID,23.4653,VALID,129,VALID,0.416016,
2012-05-04, 01:43:04,VALID,998.597,VALID,0,VALID,94.3555,VALID,0,VALID,23.4671,VALID,129,VALID,0.295312,
2012-05-04, 01:44:04,VALID,998.588,VALID,0,VALID,94.3631,VALID,0,VALID,23.4263,VALID,129,VALID,0.25,
2012-05-04, 01:45:05,VALID,998.596,VALID,0,VALID,94.4013,VALID,0,VALID,23.4263,VALID,129,VALID,0.0449219,
2012-05-04, 01:46:04,VALID,998.586,VALID,0,VALID,94.386,VALID,0,VALID,23.4067,VALID,129,VALID,0,
2012-05-04, 01:47:04,VALID,998.591,VALID,0,VALID,94.3937,VALID,0,VALID,23.389,VALID,129,VALID,0,
2012-05-04, 01:48:05,VALID,998.597,VALID,0,VALID,94.3784,VALID,0,VALID,23.3482,VALID,129,VALID,0,
2012-05-04, 01:49:05,VALID,998.584,VALID,0,VALID,94.386,VALID,0,VALID,23.35,VALID,129,VALID,0,
2012-05-04, 01:50:05,VALID,998.569,VALID,0,VALID,94.4394,VALID,0,VALID,23.3287,VALID,129,VALID,0,
2012-05-04, 01:51:05,VALID,998.583,VALID,0,VALID,94.4547,VALID,0,VALID,23.2897,VALID,129,VALID,0,
2012-05-04, 01:52:05,VALID,998.537,VALID,0,VALID,94.4852,VALID,0.104696,VALID,23.2702,VALID,129,VALID,0,
2012-05-04, 01:53:05,VALID,998.528,VALID,0,VALID,94.5386,VALID,0,VALID,23.2915,VALID,129,VALID,0,
2012-05-04, 01:54:05,VALID,998.535,VALID,0,VALID,94.5768,VALID,0,VALID,23.2702,VALID,129,VALID,0,
2012-05-04, 01:55:05,VALID,998.536,VALID,0,VALID,94.6531,VALID,0,VALID,23.2702,VALID,129,VALID,0,
2012-05-04, 01:56:05,VALID,998.531,VALID,0,VALID,94.7141,VALID,0,VALID,23.2915,VALID,129,VALID,0,
2012-05-04, 01:57:05,VALID,998.518,VALID,0,VALID,94.7446,VALID,0,VALID,23.2897,VALID,129,VALID,0,
2012-05-04, 01:58:05,VALID,998.506,VALID,0,VALID,94.8057,VALID,0,VALID,23.311,VALID,129,VALID,0,
2012-05-04, 01:59:05,VALID,998.512,VALID,0,VALID,94.8209,VALID,0,VALID,23.311,VALID,129,VALID,0.332422,
2012-05-04, 02:00:05,VALID,998.519,VALID,0,VALID,94.8285,VALID,0,VALID,23.2897,VALID,129,VALID,0.324219,
2012-05-04, 02:01:05,VALID,998.503,VALID,0,VALID,94.8438,VALID,0,VALID,23.311,VALID,129,VALID,0.316016,
2012-05-04, 02:02:05,VALID,998.471,VALID,0,VALID,94.8438,VALID,0,VALID,23.311,VALID,129,VALID,0.325,
2012-05-04, 02:03:05,VALID,998.484,VALID,0,VALID,94.8514,VALID,0,VALID,23.2897,VALID,129,VALID,0.270703,
2012-05-04, 02:04:05,VALID,998.452,VALID,0,VALID,94.8743,VALID,0,VALID,23.311,VALID,129,VALID,0.221094,
2012-05-04, 02:05:05,VALID,998.453,VALID,0,VALID,94.8667,VALID,0,VALID,23.311,VALID,129,VALID,0.225391,
2012-05-04, 02:06:05,VALID,998.438,VALID,0,VALID,94.8591,VALID,0,VALID,23.2719,VALID,129,VALID,0.221875,
2012-05-04, 02:07:05,VALID,998.43,VALID,0,VALID,94.8133,VALID,0,VALID,23.2507,VALID,129,VALID,0.167969,
2012-05-04, 02:08:05,VALID,998.426,VALID,0,VALID,94.8209,VALID,0,VALID,23.2524,VALID,129,VALID,0.00585938,
2012-05-04, 02:09:05,VALID,998.399,VALID,0,VALID,94.8133,VALID,0,VALID,23.2312,VALID,129,VALID,0,
2012-05-04, 02:10:05,VALID,998.376,VALID,0,VALID,94.8209,VALID,0,VALID,23.2117,VALID,129,VALID,0.282813,
2012-05-04, 02:11:05,VALID,998.408,VALID,0,VALID,94.8285,VALID,0,VALID,23.1921,VALID,129,VALID,0.144141,
2012-05-04, 02:12:05,VALID,998.385,VALID,0,VALID,94.8514,VALID,0.104696,VALID,23.2134,VALID,129,VALID,0,
2012-05-04, 02:13:05,VALID,998.36,VALID,0,VALID,94.8896,VALID,0,VALID,23.1921,VALID,129,VALID,0,
2012-05-04, 02:14:05,VALID,998.369,VALID,0,VALID,94.9048,VALID,0,VALID,23.2329,VALID,129,VALID,0,
2012-05-04, 02:15:05,VALID,998.39,VALID,0,VALID,94.9201,VALID,0,VALID,23.2117,VALID,129,VALID,0,
2012-05-04, 02:16:05,VALID,998.346,VALID,0,VALID,94.9277,VALID,0,VALID,23.2117,VALID,129,VALID,0,
2012-05-04, 02:17:05,VALID,998.347,VALID,0,VALID,94.9583,VALID,0,VALID,23.2117,VALID,129,VALID,0,
2012-05-04, 02:18:05,VALID,998.333,VALID,0,VALID,94.943,VALID,0,VALID,23.1921,VALID,129,VALID,0,
2012-05-04, 02:19:05,VALID,998.314,VALID,0,VALID,94.9354,VALID,0,VALID,23.2134,VALID,129,VALID,0,
2012-05-04, 02:20:05,VALID,998.297,VALID,0,VALID,94.943,VALID,0,VALID,23.2134,VALID,129,VALID,0,
2012-05-04, 02:21:05,VALID,998.266,VALID,0,VALID,94.9811,VALID,0,VALID,23.1921,VALID,129,VALID,0,
2012-05-04, 02:22:05,VALID,998.283,VALID,0,VALID,94.9735,VALID,0,VALID,23.2347,VALID,129,VALID,0,
2012-05-04, 02:23:05,VALID,998.315,VALID,0,VALID,95.0193,VALID,0,VALID,23.2347,VALID,129,VALID,0.0269531,
2012-05-04, 02:24:05,VALID,998.292,VALID,0,VALID,95.0117,VALID,0,VALID,23.2152,VALID,129,VALID,0.517969,
2012-05-04, 02:25:05,VALID,998.246,VALID,0,VALID,94.9964,VALID,0,VALID,23.2134,VALID,129,VALID,0.278906,
2012-05-04, 02:26:05,VALID,998.254,VALID,0,VALID,94.9888,VALID,0,VALID,23.2134,VALID,129,VALID,0.166406,
2012-05-04, 02:27:05,VALID,998.275,VALID,0,VALID,94.9811,VALID,0,VALID,23.2152,VALID,129,VALID,0,
2012-05-04, 02:28:05,VALID,998.266,VALID,0,VALID,94.943,VALID,0,VALID,23.1939,VALID,129,VALID,0,
2012-05-04, 02:29:05,VALID,998.229,VALID,0,VALID,94.943,VALID,0,VALID,23.1939,VALID,129,VALID,0,
2012-05-04, 02:30:05,VALID,998.232,VALID,0,VALID,94.9659,VALID,0,VALID,23.1939,VALID,129,VALID,0,
2012-05-04, 02:31:05,VALID,998.209,VALID,0,VALID,94.9811,VALID,0,VALID,23.1939,VALID,129,VALID,0,
2012-05-04, 02:32:05,VALID,998.22,VALID,0,VALID,94.9811,VALID,0,VALID,23.1939,VALID,129,VALID,0,
2012-05-04, 02:33:05,VALID,998.198,VALID,0,VALID,95.004,VALID,0,VALID,23.2347,VALID,129,VALID,0.111328,
2012-05-04, 02:34:05,VALID,998.226,VALID,0,VALID,95.0345,VALID,0,VALID,23.2329,VALID,129,VALID,0.29375,
2012-05-04, 02:35:05,VALID,998.227,VALID,0,VALID,95.0498,VALID,0,VALID,23.2329,VALID,129,VALID,0.356641,
2012-05-04, 02:36:05,VALID,998.229,VALID,0,VALID,95.0498,VALID,0,VALID,23.2329,VALID,129,VALID,0.313281,
2012-05-04, 02:37:05,VALID,998.201,VALID,0,VALID,95.0498,VALID,0,VALID,23.2329,VALID,129,VALID,0.234375,
2012-05-04, 02:38:05,VALID,998.213,VALID,0,VALID,95.0193,VALID,0,VALID,23.2347,VALID,129,VALID,0.190625,
2012-05-04, 02:39:05,VALID,998.179,VALID,0,VALID,95.0269,VALID,0,VALID,23.2329,VALID,129,VALID,0.147266,
2012-05-04, 02:40:05,VALID,998.186,VALID,0,VALID,95.0422,VALID,0,VALID,23.2542,VALID,129,VALID,0,
2012-05-04, 02:41:05,VALID,998.181,VALID,0,VALID,95.0498,VALID,0,VALID,23.2329,VALID,129,VALID,0,
2012-05-04, 02:42:05,VALID,998.157,VALID,0,VALID,95.0193,VALID,0,VALID,23.2347,VALID,129,VALID,0,
2012-05-04, 02:43:05,VALID,998.168,VALID,0,VALID,95.0345,VALID,0,VALID,23.2542,VALID,129,VALID,0,
2012-05-04, 02:44:05,VALID,998.171,VALID,0,VALID,95.0422,VALID,0,VALID,23.2329,VALID,129,VALID,0,
2012-05-04, 02:45:05,VALID,998.161,VALID,0,VALID,95.0117,VALID,0,VALID,23.2329,VALID,129,VALID,0,
2012-05-04, 02:46:05,VALID,998.149,VALID,0,VALID,95.0269,VALID,0,VALID,23.2329,VALID,129,VALID,0,
2012-05-04, 02:47:05,VALID,998.174,VALID,0,VALID,95.0269,VALID,0,VALID,23.2524,VALID,129,VALID,0.0265625,
2012-05-04, 02:48:05,VALID,998.152,VALID,0,VALID,95.0193,VALID,0,VALID,23.2329,VALID,142,VALID,0.531641,
2012-05-04, 02:49:05,VALID,998.145,VALID,0,VALID,94.9659,VALID,0,VALID,23.2347,VALID,142,VALID,0.794922,
2012-05-04, 02:50:05,VALID,998.108,VALID,0,VALID,94.9201,VALID,0,VALID,23.2134,VALID,142,VALID,0.695313,
2012-05-04, 02:51:05,VALID,998.083,VALID,0,VALID,94.8514,VALID,0,VALID,23.1939,VALID,142,VALID,0.602734,
2012-05-04, 02:52:05,VALID,998.082,VALID,0,VALID,94.7751,VALID,0,VALID,23.2134,VALID,142,VALID,0.632422,
2012-05-04, 02:53:05,VALID,998.044,VALID,0,VALID,94.7141,VALID,0,VALID,23.1939,VALID,142,VALID,0.620703,
2012-05-04, 02:54:05,VALID,998.004,VALID,0,VALID,94.6531,VALID,0,VALID,23.2134,VALID,142,VALID,0.735156,
2012-05-04, 02:55:05,VALID,998.031,VALID,0,VALID,94.592,VALID,0,VALID,23.2134,VALID,142,VALID,0.613672,
2012-05-04, 02:56:05,VALID,998.03,VALID,0,VALID,94.5157,VALID,0,VALID,23.2347,VALID,142,VALID,0.696875,
2012-05-04, 02:57:05,VALID,998.044,VALID,0,VALID,94.4547,VALID,0,VALID,23.2347,VALID,142,VALID,0.564844,
2012-05-04, 02:58:05,VALID,998.022,VALID,0,VALID,94.4089,VALID,0,VALID,23.2524,VALID,142,VALID,0.398438,
2012-05-04, 02:59:05,VALID,998.032,VALID,0,VALID,94.3631,VALID,0,VALID,23.2524,VALID,142,VALID,0.319922,
2012-05-04, 03:00:05,VALID,998.052,VALID,0,VALID,94.2716,VALID,0,VALID,23.2542,VALID,142,VALID,0.482031,
2012-05-04, 03:01:05,VALID,998.079,VALID,0,VALID,94.1953,VALID,0,VALID,23.2932,VALID,142,VALID,0.558594,
2012-05-04, 03:02:05,VALID,998.097,VALID,0,VALID,94.1419,VALID,0,VALID,23.2737,VALID,142,VALID,0.545313,
2012-05-04, 03:03:05,VALID,998.092,VALID,0,VALID,94.0808,VALID,0,VALID,23.2719,VALID,142,VALID,0.496875,
2012-05-04, 03:04:05,VALID,998.135,VALID,0,VALID,93.9969,VALID,0,VALID,23.2915,VALID,142,VALID,0.555859,
2012-05-04, 03:05:05,VALID,998.12,VALID,0,VALID,93.9511,VALID,0,VALID,23.3323,VALID,142,VALID,0.302734,
2012-05-04, 03:06:05,VALID,998.139,VALID,0,VALID,93.8901,VALID,0,VALID,23.2915,VALID,142,VALID,0.317969,
2012-05-04, 03:07:05,VALID,998.134,VALID,0,VALID,93.8672,VALID,0,VALID,23.2897,VALID,142,VALID,0.251953,
2012-05-04, 03:08:05,VALID,998.132,VALID,0,VALID,93.8596,VALID,0,VALID,23.311,VALID,142,VALID,0.221484,
2012-05-04, 03:09:05,VALID,998.118,VALID,0,VALID,93.852,VALID,0,VALID,23.2702,VALID,142,VALID,0.305859,
2012-05-04, 03:10:05,VALID,998.115,VALID,0,VALID,93.8291,VALID,0,VALID,23.2915,VALID,142,VALID,0.246094,
2012-05-04, 03:11:05,VALID,998.086,VALID,0,VALID,93.8672,VALID,0,VALID,23.2915,VALID,142,VALID,0.490234,
2012-05-04, 03:12:05,VALID,998.101,VALID,0,VALID,93.8748,VALID,0,VALID,23.2915,VALID,142,VALID,0.489062,
2012-05-04, 03:13:05,VALID,998.11,VALID,0,VALID,93.8901,VALID,0,VALID,23.2719,VALID,142,VALID,0.480078,
2012-05-04, 03:14:05,VALID,998.088,VALID,0,VALID,93.8367,VALID,0,VALID,23.2524,VALID,142,VALID,0.556641,
2012-05-04, 03:15:05,VALID,998.106,VALID,0,VALID,93.7985,VALID,0,VALID,23.2329,VALID,142,VALID,0.537891,
2012-05-04, 03:16:05,VALID,998.094,VALID,0,VALID,93.7299,VALID,0,VALID,23.2134,VALID,142,VALID,0.609766,
2012-05-04, 03:17:05,VALID,998.107,VALID,0,VALID,93.6612,VALID,0,VALID,23.2134,VALID,142,VALID,0.582812,
2012-05-04, 03:18:05,VALID,998.095,VALID,0,VALID,93.6231,VALID,0,VALID,23.1726,VALID,142,VALID,0.424609,
2012-05-04, 03:19:05,VALID,998.116,VALID,0,VALID,93.6078,VALID,0,VALID,23.1921,VALID,142,VALID,0.351953,
2012-05-04, 03:20:05,VALID,998.133,VALID,0,VALID,93.5849,VALID,0,VALID,23.1726,VALID,142,VALID,0.230078,
2012-05-04, 03:21:05,VALID,998.127,VALID,0,VALID,93.6002,VALID,0,VALID,23.1726,VALID,142,VALID,0.129688,
2012-05-04, 03:22:05,VALID,998.127,VALID,0,VALID,93.5697,VALID,0,VALID,23.1939,VALID,142,VALID,0,
2012-05-04, 03:23:05,VALID,998.101,VALID,0,VALID,93.562,VALID,0,VALID,23.1939,VALID,142,VALID,0,
2012-05-04, 03:24:05,VALID,998.142,VALID,0,VALID,93.6154,VALID,0,VALID,23.1939,VALID,142,VALID,0,
2012-05-04, 03:25:05,VALID,998.117,VALID,0,VALID,93.6536,VALID,0,VALID,23.1939,VALID,142,VALID,0,
2012-05-04, 03:26:05,VALID,998.131,VALID,0,VALID,93.6536,VALID,0,VALID,23.1726,VALID,142,VALID,0.215234,
2012-05-04, 03:27:05,VALID,998.146,VALID,0,VALID,93.6612,VALID,0,VALID,23.1939,VALID,142,VALID,0,
2012-05-04, 03:28:05,VALID,998.14,VALID,0,VALID,93.6536,VALID,0,VALID,23.1726,VALID,142,VALID,0,
2012-05-04, 03:29:05,VALID,998.147,VALID,0,VALID,93.646,VALID,0,VALID,23.1531,VALID,142,VALID,0.210156,
2012-05-04, 03:30:05,VALID,998.163,VALID,0,VALID,93.6765,VALID,0,VALID,23.1726,VALID,142,VALID,0.644531,
2012-05-04, 03:31:05,VALID,998.21,VALID,0,VALID,93.7909,VALID,0,VALID,23.1531,VALID,142,VALID,0.707031,
2012-05-04, 03:32:05,VALID,998.211,VALID,0,VALID,93.9283,VALID,0,VALID,23.1336,VALID,142,VALID,0.6875,
2012-05-04, 03:33:05,VALID,998.216,VALID,0,VALID,93.974,VALID,0,VALID,23.1354,VALID,341,VALID,0.770703,
2012-05-04, 03:34:05,VALID,998.211,VALID,0,VALID,94.0503,VALID,0.104696,VALID,23.1141,VALID,341,VALID,0.825,
2012-05-04, 03:35:05,VALID,998.221,VALID,0,VALID,94.1266,VALID,0,VALID,23.0946,VALID,4,VALID,0.723828,
2012-05-04, 03:36:05,VALID,998.213,VALID,0,VALID,94.1495,VALID,0,VALID,23.0946,VALID,19,VALID,0.603906,
2012-05-04, 03:37:05,VALID,998.2,VALID,0,VALID,94.1495,VALID,0,VALID,23.0946,VALID,21,VALID,0.401563,
2012-05-04, 03:38:05,VALID,998.184,VALID,0,VALID,94.0808,VALID,0,VALID,23.1141,VALID,21,VALID,0.398828,
2012-05-04, 03:39:05,VALID,998.166,VALID,0,VALID,93.9664,VALID,0,VALID,23.1549,VALID,21,VALID,0.4625,
2012-05-04, 03:40:05,VALID,998.182,VALID,0,VALID,93.8977,VALID,0,VALID,23.1141,VALID,21,VALID,0.228125,
2012-05-04, 03:41:05,VALID,998.156,VALID,0,VALID,93.8443,VALID,0,VALID,23.1141,VALID,21,VALID,0,
2012-05-04, 03:42:05,VALID,998.153,VALID,0,VALID,93.8596,VALID,0,VALID,23.1159,VALID,21,VALID,0,
2012-05-04, 03:43:05,VALID,998.146,VALID,0,VALID,93.8901,VALID,0,VALID,23.1354,VALID,21,VALID,0,
2012-05-04, 03:44:05,VALID,998.158,VALID,0,VALID,93.9664,VALID,0,VALID,23.0964,VALID,21,VALID,0,
2012-05-04, 03:45:05,VALID,998.17,VALID,0,VALID,93.9969,VALID,0,VALID,23.0751,VALID,21,VALID,0,
2012-05-04, 03:46:05,VALID,998.144,VALID,0,VALID,94.0351,VALID,0,VALID,23.0769,VALID,21,VALID,0,
2012-05-04, 03:47:05,VALID,998.165,VALID,0,VALID,94.0961,VALID,0,VALID,23.0769,VALID,21,VALID,0,
2012-05-04, 03:48:05,VALID,998.155,VALID,0,VALID,94.1037,VALID,0,VALID,23.0361,VALID,21,VALID,0,
2012-05-04, 03:49:05,VALID,998.176,VALID,0,VALID,94.1266,VALID,0,VALID,23.0166,VALID,21,VALID,0,